AirNav   Everest Fuels
 
 1504 users online  

02C Capitol Drive Airport
Brookfield, Wisconsin, USA

GOING TO BROOKFIELD?


FAA INFORMATION EFFECTIVE 10 SEPTEMBER 2020

Location

FAA Identifier: 02C
Lat/Long: 43-05-22.6292N 088-10-45.9846W
43-05.377153N 088-10.766410W
43.0896192,-88.1794402
(estimated)
Elevation: 846 ft. / 258 m (estimated)
Variation: 01W (1985)
From city: 3 miles E of BROOKFIELD, WI
Time zone: UTC -5 (UTC -6 during Standard Time)
Zip code: 53072

Airport Operations

Airport use: Open to the public
Activation date: 05/1948
Control tower: no
ARTCC: CHICAGO CENTER
FSS: GREEN BAY FLIGHT SERVICE STATION
NOTAMs facility: GRB (NOTAM-D service available)
Attendance: APR-OCT 0800-DUSK, NOV-MAR 0800-1800
Pattern altitude: 1646 ft. MSL
Wind indicator: lighted
Segmented circle: yes
Lights: ACTVT MIRL RWY 03/21 - CTAF.
Beacon: white-green (lighted land airport)
Operates sunset to sunrise.

Airport Communications

CTAF/UNICOM: 122.7
WX AWOS-3 at UES (4 nm SW): 118.875 (262-521-5226)
WX AWOS-3 at MWC (6 nm E): PHONE 414-461-2954
WX ASOS at MKE (15 nm SE): 126.4 (414-489-2168)
WX AWOS-3PT at 57C (19 nm SW): 118.125 (262-642-1845)

Nearby radio navigation aids

VOR radial/distance  VOR name  Freq  Var
BAEr108/4.9BADGER VOR/DME116.4002E
BJBr188/(20.1)WEST BEND VOR109.8001W

 
NDB name  Hdg/Dist  Freq  Var  ID
ROCK RIVER103/24.437101WRYV .-. -.-- ...-
LAKE LAWN040/29.740402WLVV .-.. ...- ...-
JUNEAU133/30.634401WUNU ..- -. ..-

Airport Services

Fuel available: 100LL MOGAS
Parking: hangars and tiedowns
Airframe service: NONE
Powerplant service: NONE
Bottled oxygen: NONE
Bulk oxygen: NONE

Runway Information

Runway 3/21

Dimensions: 3010 x 44 ft. / 917 x 13 m
Surface: asphalt, in fair condition
Runway edge lights: medium intensity
RUNWAY 3  RUNWAY 21
Latitude: 43-05.133167N43-05.609667N
Longitude: 088-10.830167W088-10.644833W
Elevation: 842.9 ft.827.2 ft.
Traffic pattern: leftleft
Runway heading: 017 magnetic, 016 true197 magnetic, 196 true
Displaced threshold: 1396 ft.695 ft.
Markings: basic, in fair conditionbasic, in fair condition
Runway end identifier lights: nono
Obstructions: 76 ft. trees, 200 ft. from runway, 125 ft. left of centerline
RWY 03 APCH RATIO 21:1 TO DSPLCD THR.
86 ft. trees, 1210 ft. from runway, 200 ft. left of centerline, 11:1 slope to clear
RWY 21 APCH RATIO 11:1 TO DSPLCD THR; 10 FT BUSHES 125 FT FM THR 75 FT R.

Runway 9/27

Dimensions: 3395 x 100 ft. / 1035 x 30 m
Surface: turf, in fair condition
Runway edge markings: RWY 09/27 THRS MKD BY YELLOW CONES.
RUNWAY 9  RUNWAY 27
Latitude: 43-05.408000N43-05.432500N
Longitude: 088-11.143500W088-10.381667W
Elevation: 832.0 ft.825.0 ft.
Traffic pattern: leftleft
Markings: nonenone
Runway end identifier lights: nono
Obstructions: 55 ft. tree, 400 ft. from runway, 150 ft. right of centerline, 7:1 slope to clear82 ft. trees, 1400 ft. from runway, 17:1 slope to clear

Runway 18/36

Dimensions: 1600 x 80 ft. / 488 x 24 m
Surface: turf, in fair condition
Runway edge markings: RWY 18/36 THRS MKD BY YELLOW CONES.
RUNWAY 18  RUNWAY 36
Latitude: 43-05.428167N43-05.164833N
Longitude: 088-10.827833W088-10.830000W
Elevation: 831.0 ft.846.0 ft.
Traffic pattern: leftleft
Markings: nonenone
Runway end identifier lights: nono
Obstructions: 6 ft. brush76 ft. trees, 120 ft. left of centerline

Airport Ownership and Management from official FAA records

Ownership: Privately-owned
Owner: WISCONSIN AVIATION INVESTMENTS LLC
4800 N. PINECREST DRIVE
CHENEQUA, WI 53058
Phone 262-391-0343
Manager: MATT BYRNE
21500 W GUMINA DR
PEWAUKEE, WI 53072
Phone 262-781-4213
ADDITIONAL PHONE NUMBER: 414-406-3119

Airport Operational Statistics

Aircraft based on the field: 93
Single engine airplanes: 84
Multi engine airplanes: 3
Helicopters: 6
    
Aircraft operations: avg 36/day *
61% local general aviation
38% transient general aviation
<1% military
* for 12-month period ending 10 July 2019

Additional Remarks

RYS 03 & 36 ACFT OPNS CANNOT SEE RY 27 ACFT OPNS.
RYS 09/27 & 18/36 NOT SANDED OR PLOWED. CONFIRM CONDS & SNOW REMOVAL FOR RY 03/21 WITH AMGR 262-781-4213.
RYS 09/27 & 18/36 OPEN FOR SKI EQUIPPED ACFT DEC 1 THRU APR 15.
FOR CD CTC CHICAGO ARTCC AT 630-906-8921.

Instrument Procedures

There are no published instrument procedures at 02C.

Some nearby airports with instrument procedures:

KUES - Waukesha County Airport (4 nm SW)
KMWC - Lawrence J Timmerman Airport (6 nm E)
KMKE - General Mitchell International Airport (15 nm SE)
KHXF - Hartford Municipal Airport (18 nm NW)
57C - East Troy Municipal Airport (19 nm SW)
 
Loc | Ops | Rwys | IFR | FBO | Links
Com | Nav | Svcs | Stats | Notes
Area around 02C (Capitol Drive Airport)
 
Road maps at: MapQuest Bing Google
 
Aerial photo
WARNING: Photo may not be current or correct
Aerial photo of 02C (Capitol Drive Airport)
Photo by Amy Gesch
Taken mid October 2005

Do you have a better or more recent aerial photo of Capitol Drive Airport that you would like to share? If so, please send us your photo.

 
Sectional chart

 
Airport distance calculator
Flying to Capitol Drive Airport? Find the distance to fly.

From to 02C

Sunrise and sunset
Times for 18-Sep-2020
 Local
(UTC-5)
 Zulu
(UTC)
Morning civil twilight06:0911:09
Sunrise06:3811:38
Sunset18:5523:55
Evening civil twilight19:2400:24

Current date and time
Zulu (UTC)  18-Sep-2020 15:21:09
Local (UTC-5)  18-Sep-2020 10:21:09
 
METAR
KUES 
5nm SE 
181445Z 05007KT 10SM SCT050 OVC055 11/06 A3041
KMWC 
7nm E 
181445Z 06008KT 10SM SCT030 BKN035 BKN055 12/04 A3042
KMKE 
15nm SE 
181452Z 07011KT 10SM SCT034 BKN045 BKN049 12/05 A3042 RMK AO2 SLP300 60000 T01220050 53026
K57C 
19nm SW 
181455Z AUTO 05007KT 10SM BKN026 BKN033 BKN040 13/07 A3041 RMK AO2 T01300069
KETB 
20nm N 
181455Z AUTO 05009KT 10SM CLR 12/03 A3042 RMK AO2
TAF
KUES 
5nm SE 
181120Z 1812/1912 03008KT P6SM BKN035 FM181400 05009KT P6SM BKN040 FM190100 06004KT P6SM FEW040 FM190400 VRB03KT P6SM SKC
KMKE 
15nm SE 
181120Z 1812/1918 04010KT P6SM OVC045 FM181500 06011G17KT P6SM BKN040 FM182300 04008KT P6SM FEW040 FM190600 05004KT P6SM SKC FM191500 14004KT P6SM SCT040
NOTAMs
Click for the latest NOTAMs
NOTAMs are issued by the DoD/FAA and will open in a separate window not controlled by AirNav.

 

 
 

FBO, Fuel Providers, and Aircraft Ground Support

  
 Business Name 
 
 Contact 
 
 Services / Description 
 
Fuel Prices
 
Comments
  
Brookfield Aero 262-781-4213
[web site]
[email]
Airport management, Aviation fuel, Aircraft parking (ramp or tiedown), Hangar leasing / sales, Passenger terminal and lounge, Flight training, Aircraft rental, ...

More info about Brookfield Aero
independent
100LL Mogas
AS $3.65 $2.85 
 Updated 03-Sep-2020
 
   write
AS=Assisted/Self Service
Update Fuel Prices
 

Would you like to see your business listed on this page?

 If your business provides an interesting product or service to pilots, flight crews, aircraft, or users of the Capitol Drive Airport, you should consider listing it here.  To start the listing process, click on the button below
 
Add a business
 

Other Pages about Capitol Drive Airport

www.capitoldriveairport.com
Page from the Wisconsin airport directory (PDF)
 
Update a link
 
Copyright © AirNav, LLC. All rights reserved. Privacy Policy  Contact